Location: Beccas
(43.4309°N, 0.1528°E)
Time: 13:58:07
(UTC+00:00)

Transit 2A Rocket - Pass Details

Date: 05 June 2022
Orbit: 593 x 908 km, 66.7° (Epoch: 30 June)

Event Time Altitude Azimuth Distance (km) Brightness Sun altitude
Rises 20:09:15 0° 322° (NW) 2,883 10.0 -5.7°
Reaches altitude 10° 20:11:37 10° 316° (NW) 1,952 8.9 -6.0°
Maximum altitude 20:15:43 41° 245° (WSW) 861 5.6 -6.6°
Drops below altitude 10° 20:19:45 10° 175° (S) 1,925 6.7 -7.1°
Enters shadow 20:21:23 - 170° (S) 2,565 7.3 -7.4°
